When you browse on this site, cookies collect data to enhance your experience and personalize the content and advertising you see.
Visit our Privacy Policy to learn more. By continuing to use the site, you agree to this use of cookies and data.
  • In Hungary
  • List of Countries
  • For 7 days
  • Water Temperature
  • Satellite Maps
  • Weather Map
  • News
  • Weather Widgets
  • user-avatar
    Login

    Hourly Weather Dalat

    Today, 20 March, Wednesday

    Time Temperature Precipitation Wind Pressure Humidity
    00:00 +18°C° 0 mm 1 mps 652 mmHg 89%
    01:00 +16°C° 0 mm 1 mps 652 mmHg 86%
    02:00 +16°C° 0 mm 1 mps 652 mmHg 84%
    03:00 +16°C° 0 mm 1 mps 651 mmHg 81%
    04:00 +16°C° 0 mm 1 mps 651 mmHg 78%
    05:00 +18°C° 0 mm 1 mps 652 mmHg 75%
    06:00 +19°C° 0 mm 1 mps 653 mmHg 72%
    07:00 +21°C° 0 mm 1 mps 653 mmHg 70%
    08:00 +24°C° 0 mm 1 mps 654 mmHg 58%
    09:00 +26°C° 0 mm 1 mps 655 mmHg 46%
    10:00 +29°C° 0 mm 1 mps 656 mmHg 35%
    11:00 +30°C° 0 mm 1 mps 656 mmHg 33%
    12:00 +31°C° 0 mm 2 mps 656 mmHg 31%
    13:00 +31°C° 0 mm 2 mps 656 mmHg 32%
    14:00 +29°C° 0 mm 2 mps 655 mmHg 38%
    15:00 +28°C° 0 mm 2 mps 654 mmHg 44%
    16:00 +26°C° 0 mm 1 mps 653 mmHg 50%
    17:00 +24°C° 0 mm 1 mps 653 mmHg 59%
    18:00 +23°C° 0 mm 1 mps 653 mmHg 68%
    19:00 +21°C° 0 mm 1 mps 652 mmHg 77%
    20:00 +20°C° 0 mm 1 mps 652 mmHg 81%
    21:00 +19°C° 0 mm 1 mps 653 mmHg 85%
    22:00 +17°C° 0 mm 0 mps 653 mmHg 89%
    23:00 +17°C° 0 mm 0 mps 653 mmHg 88%

    Tomorrow, 21 March, Thursday

    Time Temperature Precipitation Wind Pressure Humidity
    00:00 +17°C° 0 mm 0 mps 652 mmHg 88%
    01:00 +18°C° 0 mm 1 mps 652 mmHg 88%
    02:00 +18°C° 0 mm 1 mps 652 mmHg 87%
    03:00 +18°C° 0 mm 1 mps 652 mmHg 86%
    04:00 +16°C° 0 mm 0 mps 651 mmHg 85%
    05:00 +17°C° 0 mm 0 mps 652 mmHg 80%
    06:00 +18°C° 0 mm 0 mps 653 mmHg 75%
    07:00 +19°C° 0 mm 0 mps 653 mmHg 70%
    08:00 +24°C° 0 mm 1 mps 654 mmHg 58%
    09:00 +27°C° 0 mm 1 mps 656 mmHg 46%
    10:00 +30°C° 0 mm 1 mps 657 mmHg 33%
    11:00 +31°C° 0 mm 1 mps 656 mmHg 31%
    12:00 +32°C° 0 mm 2 mps 656 mmHg 29%
    13:00 +34°C° 0 mm 2 mps 656 mmHg 27%
    14:00 +31°C° 0 mm 2 mps 655 mmHg 35%
    15:00 +29°C° 0 mm 2 mps 654 mmHg 43%
    16:00 +26°C° 0 mm 2 mps 653 mmHg 51%
    17:00 +24°C° 0 mm 1 mps 652 mmHg 62%
    18:00 +22°C° 0 mm 1 mps 652 mmHg 73%
    19:00 +20°C° 0 mm 1 mps 652 mmHg 85%
    20:00 +20°C° 0 mm 1 mps 652 mmHg 87%
    21:00 +20°C° 0 mm 1 mps 652 mmHg 89%
    22:00 +17°C° 0 mm 0 mps 653 mmHg 92%
    23:00 +17°C° 0 mm 0 mps 653 mmHg 91%

    Day after tomorrow, 22 March, Friday

    Time Temperature Precipitation Wind Pressure Humidity
    00:00 +17°C° 0 mm 0 mps 652 mmHg 90%
    01:00 +17°C° 0 mm 0 mps 652 mmHg 89%
    02:00 +17°C° 0 mm 0 mps 652 mmHg 87%
    03:00 +19°C° 0 mm 1 mps 652 mmHg 85%
    04:00 +18°C° 0 mm 1 mps 651 mmHg 83%
    05:00 +18°C° 0 mm 0 mps 652 mmHg 78%
    06:00 +19°C° 0 mm 0 mps 653 mmHg 74%
    07:00 +20°C° 0 mm 0 mps 653 mmHg 69%
    08:00 +23°C° 0 mm 0 mps 655 mmHg 58%
    09:00 +28°C° 0 mm 1 mps 656 mmHg 46%
    10:00 +31°C° 0 mm 1 mps 657 mmHg 34%
    11:00 +31°C° 0 mm 1 mps 656 mmHg 36%
    12:00 +30°C° 0 mm 1 mps 655 mmHg 37%
    13:00 +30°C° 0 mm 1 mps 654 mmHg 38%
    14:00 +28°C° 0.9 mm 1 mps 653 mmHg 50%
    15:00 +26°C° 0.9 mm 1 mps 652 mmHg 62%
    16:00 +24°C° 0.9 mm 1 mps 651 mmHg 75%
    17:00 +23°C° 0.9 mm 1 mps 651 mmHg 80%
    18:00 +22°C° 0.9 mm 1 mps 651 mmHg 85%
    19:00 +19°C° 0.9 mm 0 mps 652 mmHg 90%
    20:00 +18°C° 0 mm 0 mps 652 mmHg 91%
    21:00 +18°C° 0 mm 0 mps 652 mmHg 93%
    22:00 +18°C° 0 mm 0 mps 653 mmHg 94%
    23:00 +17°C° 0 mm 0 mps 652 mmHg 95%

    23 March, Saturday

    Time Temperature Precipitation Wind Pressure Humidity
    00:00 +17°C° 0 mm 0 mps 652 mmHg 95%
    01:00 +17°C° 0 mm 0 mps 652 mmHg 95%
    02:00 +17°C° 0 mm 0 mps 651 mmHg 95%
    03:00 +19°C° 0 mm 1 mps 651 mmHg 95%
    04:00 +19°C° 0 mm 1 mps 651 mmHg 94%
    05:00 +19°C° 0 mm 1 mps 652 mmHg 91%
    06:00 +20°C° 0 mm 1 mps 652 mmHg 87%
    07:00 +21°C° 0 mm 1 mps 653 mmHg 83%
    08:00 +24°C° 0 mm 1 mps 654 mmHg 69%
    09:00 +27°C° 0 mm 1 mps 655 mmHg 55%
    10:00 +29°C° 0 mm 2 mps 656 mmHg 41%
    11:00 +30°C° 0 mm 2 mps 656 mmHg 38%
    12:00 +31°C° 0 mm 2 mps 655 mmHg 35%
    13:00 +32°C° 0 mm 2 mps 655 mmHg 32%
    14:00 +30°C° 0 mm 2 mps 654 mmHg 39%
    15:00 +28°C° 0 mm 2 mps 653 mmHg 46%
    16:00 +26°C° 0 mm 1 mps 652 mmHg 53%
    17:00 +24°C° 0.1 mm 1 mps 652 mmHg 64%
    18:00 +23°C° 0.1 mm 1 mps 652 mmHg 75%
    19:00 +21°C° 0.1 mm 1 mps 652 mmHg 86%
    20:00 +20°C° 0 mm 1 mps 652 mmHg 89%
    21:00 +20°C° 0 mm 1 mps 653 mmHg 92%
    22:00 +19°C° 0 mm 1 mps 653 mmHg 95%
    23:00 +19°C° 0 mm 1 mps 652 mmHg 95%

    24 March, Sunday

    Time Temperature Precipitation Wind Pressure Humidity
    00:00 +18°C° 0 mm 1 mps 652 mmHg 95%
    01:00 +18°C° 0 mm 1 mps 651 mmHg 94%
    02:00 +18°C° 0 mm 1 mps 651 mmHg 95%
    03:00 +16°C° 0 mm 1 mps 651 mmHg 95%
    04:00 +16°C° 0 mm 1 mps 651 mmHg 95%
    05:00 +18°C° 0 mm 1 mps 652 mmHg 92%
    06:00 +19°C° 0 mm 1 mps 652 mmHg 89%
    07:00 +20°C° 0 mm 1 mps 653 mmHg 85%
    08:00 +21°C° 0 mm 2 mps 654 mmHg 72%
    09:00 +25°C° 0 mm 2 mps 655 mmHg 58%
    10:00 +28°C° 0 mm 2 mps 656 mmHg 44%
    11:00 +29°C° 0 mm 2 mps 656 mmHg 42%
    12:00 +30°C° 0 mm 2 mps 655 mmHg 39%
    13:00 +31°C° 0 mm 2 mps 655 mmHg 37%
    14:00 +29°C° 0.1 mm 2 mps 654 mmHg 44%
    15:00 +27°C° 0.1 mm 2 mps 653 mmHg 52%
    16:00 +25°C° 0.1 mm 2 mps 652 mmHg 60%
    17:00 +24°C° 0.1 mm 2 mps 652 mmHg 69%
    18:00 +22°C° 0.1 mm 1 mps 652 mmHg 79%
    19:00 +20°C° 0.1 mm 1 mps 652 mmHg 88%
    20:00 +20°C° 0 mm 1 mps 653 mmHg 90%
    21:00 +19°C° 0 mm 1 mps 653 mmHg 92%
    22:00 +19°C° 0 mm 1 mps 653 mmHg 95%
    23:00 +19°C° 0 mm 1 mps 653 mmHg 93%

    25 March, Monday

    Time Temperature Precipitation Wind Pressure Humidity
    00:00 +18°C° 0 mm 1 mps 652 mmHg 90%
    01:00 +18°C° 0 mm 1 mps 652 mmHg 88%
    02:00 +18°C° 0 mm 1 mps 652 mmHg 87%
    03:00 +16°C° 0 mm 1 mps 651 mmHg 86%
    04:00 +16°C° 0 mm 1 mps 651 mmHg 85%
    05:00 +18°C° 0 mm 1 mps 652 mmHg 82%
    06:00 +19°C° 0 mm 1 mps 653 mmHg 80%
    07:00 +20°C° 0 mm 1 mps 654 mmHg 77%
    08:00 +23°C° 0 mm 1 mps 655 mmHg 66%
    09:00 +26°C° 0 mm 1 mps 656 mmHg 55%
    10:00 +29°C° 0 mm 1 mps 657 mmHg 44%
    11:00 +30°C° 0 mm 2 mps 656 mmHg 43%
    12:00 +30°C° 0 mm 2 mps 656 mmHg 43%
    13:00 +30°C° 0 mm 2 mps 655 mmHg 42%
    14:00 +28°C° 0.7 mm 2 mps 654 mmHg 51%
    15:00 +26°C° 0.7 mm 1 mps 653 mmHg 60%
    16:00 +24°C° 0.7 mm 1 mps 653 mmHg 70%
    17:00 +23°C° 0.2 mm 1 mps 653 mmHg 75%
    18:00 +21°C° 0.2 mm 1 mps 653 mmHg 81%
    19:00 +20°C° 0.2 mm 1 mps 653 mmHg 86%
    20:00 +20°C° 0 mm 1 mps 653 mmHg 89%
    21:00 +19°C° 0 mm 1 mps 653 mmHg 91%
    22:00 +18°C° 0 mm 1 mps 654 mmHg 94%
    23:00 +18°C° 0 mm 1 mps 653 mmHg 94%
    Show more